Regional Weather Roundup
Issued by NWS

Home | Current Version | Previous Version | Text Only | Print | Product List | Glossary On
Versions: 1 2 3 4 5 6 7 8 9 10 11 12 13 14 15 16 17 18 19 20 21 22 23 24 25 26 27 28 29 30 31 32 33 34 35 36 37 38 39 40 41 42 43 44 45 46 47 48 49 50
000
ASUS42 KKEY 161310
RWRKEY

FLORIDA REGIONAL WEATHER ROUNDUP FOR THE FLORIDA KEYS
NATIONAL WEATHER SERVICE KEY WEST FLORIDA
900 AM EDT WED AUG 16 2017

...SOUTH FLORIDA AND THE KEYS...

CITY           SKY/WX    TMP DP  RH WIND       PRES   REMARKS
FORT MYERS     SUNNY     84  80  88 E5        30.08R HX  97
SW REGIONAL AP SUNNY     84  77  79 CALM      30.09R HX  94
NAPLES         SUNNY     85  77  77 E8        30.08R HX  95
MIAMI          MOSUNNY   87  76  69 CALM      30.09R HX  97
WEST KENDALL   SUNNY     87  76  69 VRB3      30.08R HX  97
HOMESTEAD      MOSUNNY   85  79  80 N6        30.07R HX  98
MARATHON       MOSUNNY   86  78  77 SE8       30.07R HX  98
BOCA CHICA NAS MOSUNNY   83  79  88 E3        30.07R HX  94
KEY WEST INTL  MOSUNNY   87  76  69 E7        30.07R HX  97

...INTERNATIONAL WEATHER...

CITY           SKY/WX    TMP DP  RH WIND       PRES   REMARKS
NASSAU BAHAMAS MOSUNNY   88  77  70 E6        30.09S HX 100
CANCUN MEXICO  MOSUNNY   82  79  89 NE2       30.03R HX  93
COZUMEL MEXICO MOSUNNY   82  79  89 E5        30.00R HX  93

ADJACENT COASTAL WATERS...

STATION/POSITION TIME  SKY/WX   TEMP    WIND        PRES    WAVE
                                AIR SEA DIR/SP/G            HT/PER
                 (UTC)          (F)     (DEG/KT/KT) (MB)    (FT/S)
PULASKI SHOAL LI 1300            86     130/  8/  9 1018.4R
SAND KEY         1250            84     170/  6/  8 1018.8R
LONG KEY         NOT AVBL
MOLASSES REEF    1100            85 86  180/  4/  5 1018.0R
FOWEY ROCKS      1200            85 88   70/  3/  3 1018.8R
Buoy 42097       1230               88                N/A     1

$$



USA.gov is the U.S. government's official web portal to all federal, state and local government web resources and services.